,,PA_Meas_PMT16A,,PR_Meas_QMR101_102,,RH_Meas_QMH101,,SR_Meas_QMS101,,TA_Meas_QMH101,,GenWind,,GenWind,
time,status,PA,status,PR,status,RH,status,SR,status,TA,status,DirAvg,status,SpdAvg,
2015-04-24, 07:35:04,VALID,919.261,VALID,0,VALID,98.6775,VALID,68.0102,VALID,19.4103,VALID,138,VALID,1.5,
2015-04-24, 07:36:04,VALID,919.249,VALID,0,VALID,98.7232,VALID,67.2582,VALID,19.3908,VALID,133,VALID,1.14453,
2015-04-24, 07:37:04,VALID,919.295,VALID,0,VALID,98.7232,VALID,66.6135,VALID,19.3908,VALID,132,VALID,1.87344,
2015-04-24, 07:38:04,VALID,919.298,VALID,0,VALID,98.7232,VALID,68.0102,VALID,19.4103,VALID,143,VALID,1.21992,
2015-04-24, 07:39:04,VALID,919.298,VALID,0,VALID,98.7232,VALID,68.9772,VALID,19.3893,VALID,141,VALID,0.29375,
2015-04-24, 07:40:04,VALID,919.319,VALID,0,VALID,98.708,VALID,69.9442,VALID,19.3893,VALID,131,VALID,0.469922,
2015-04-24, 07:41:04,VALID,919.317,VALID,0,VALID,98.7232,VALID,71.4484,VALID,19.3698,VALID,145,VALID,1.6332,
2015-04-24, 07:42:04,VALID,919.293,VALID,0,VALID,98.7156,VALID,73.3823,VALID,19.3893,VALID,142,VALID,1.33867,
2015-04-24, 07:43:04,VALID,919.269,VALID,0,VALID,98.7309,VALID,75.4237,VALID,19.3893,VALID,146,VALID,1.52578,
2015-04-24, 07:44:04,VALID,919.309,VALID,0,VALID,98.7232,VALID,76.9279,VALID,19.4298,VALID,146,VALID,1.84258,
2015-04-24, 07:45:04,VALID,919.297,VALID,0,VALID,98.7309,VALID,77.7874,VALID,19.4088,VALID,145,VALID,1.36719,
2015-04-24, 07:46:04,VALID,919.288,VALID,0,VALID,98.708,VALID,77.68,VALID,19.4493,VALID,184,VALID,0.758203,
2015-04-24, 07:47:04,VALID,919.275,VALID,0,VALID,98.7156,VALID,76.713,VALID,19.4688,VALID,153,VALID,1.33672,
2015-04-24, 07:48:04,VALID,919.328,VALID,0,VALID,98.7309,VALID,75.746,VALID,19.4688,VALID,146,VALID,1.52109,
2015-04-24, 07:49:04,VALID,919.344,VALID,0,VALID,98.7461,VALID,75.2088,VALID,19.4478,VALID,146,VALID,1.68516,
2015-04-24, 07:50:04,VALID,919.373,VALID,0,VALID,98.7461,VALID,74.6716,VALID,19.4283,VALID,158,VALID,1.06328,
2015-04-24, 07:51:04,VALID,919.346,VALID,0,VALID,98.7461,VALID,74.6716,VALID,19.4673,VALID,156,VALID,0.768359,
2015-04-24, 07:52:04,VALID,919.393,VALID,0,VALID,98.7385,VALID,74.9939,VALID,19.4868,VALID,151,VALID,0.66875,
2015-04-24, 07:53:04,VALID,919.385,VALID,0,VALID,98.7537,VALID,75.5311,VALID,19.4673,VALID,131,VALID,1.0707,
2015-04-24, 07:54:04,VALID,919.408,VALID,0,VALID,98.7614,VALID,76.2832,VALID,19.4673,VALID,140,VALID,1.19219,
2015-04-24, 07:55:04,VALID,919.441,VALID,0,VALID,98.769,VALID,77.1427,VALID,19.4868,VALID,158,VALID,1.0125,
2015-04-24, 07:56:04,VALID,919.452,VALID,0,VALID,98.7232,VALID,78.3246,VALID,19.5063,VALID,168,VALID,1.10391,
2015-04-24, 07:57:04,VALID,919.441,VALID,0,VALID,98.7385,VALID,79.9362,VALID,19.5258,VALID,168,VALID,0.571094,
2015-04-24, 07:58:04,VALID,919.477,VALID,0,VALID,98.7385,VALID,81.8702,VALID,19.5858,VALID,168,VALID,0.229297,
2015-04-24, 07:59:04,VALID,919.468,VALID,0,VALID,98.7004,VALID,84.019,VALID,19.6038,VALID,168,VALID,0.452734,
2015-04-24, 08:00:04,VALID,919.503,VALID,0,VALID,98.7004,VALID,86.4901,VALID,19.6623,VALID,168,VALID,0.148438,
2015-04-24, 08:01:04,VALID,919.493,VALID,0,VALID,98.6699,VALID,88.9613,VALID,19.7403,VALID,168,VALID,0,
2015-04-24, 08:02:04,VALID,919.515,VALID,0,VALID,98.6775,VALID,91.6473,VALID,19.7793,VALID,168,VALID,0,
2015-04-24, 08:03:04,VALID,919.5,VALID,0,VALID,98.6699,VALID,94.3333,VALID,19.8183,VALID,168,VALID,0,
2015-04-24, 08:04:04,VALID,919.535,VALID,0,VALID,98.6851,VALID,97.5566,VALID,19.8183,VALID,168,VALID,0.0949219,
2015-04-24, 08:05:04,VALID,919.536,VALID,0,VALID,98.6775,VALID,101.102,VALID,19.8003,VALID,168,VALID,0,
2015-04-24, 08:06:04,VALID,919.57,VALID,0,VALID,98.7004,VALID,105.507,VALID,19.8198,VALID,168,VALID,0,
2015-04-24, 08:07:04,VALID,919.574,VALID,0,VALID,98.6699,VALID,110.45,VALID,19.8783,VALID,168,VALID,0,
2015-04-24, 08:08:04,VALID,919.603,VALID,0,VALID,98.6699,VALID,116.036,VALID,19.9368,VALID,168,VALID,0.160547,
2015-04-24, 08:09:04,VALID,919.623,VALID,0,VALID,98.6546,VALID,122.053,VALID,19.9968,VALID,168,VALID,0.352734,
2015-04-24, 08:10:04,VALID,919.639,VALID,0,VALID,98.6546,VALID,128.07,VALID,19.9773,VALID,168,VALID,0,
2015-04-24, 08:11:04,VALID,919.633,VALID,0,VALID,98.6546,VALID,133.872,VALID,20.0148,VALID,168,VALID,0,
2015-04-24, 08:12:04,VALID,919.658,VALID,0,VALID,98.6699,VALID,138.599,VALID,19.9953,VALID,168,VALID,0,
2015-04-24, 08:13:04,VALID,919.656,VALID,0,VALID,98.7309,VALID,142.574,VALID,19.9173,VALID,168,VALID,0,
2015-04-24, 08:14:04,VALID,919.643,VALID,0,VALID,98.7309,VALID,145.046,VALID,19.9368,VALID,102,VALID,0,
2015-04-24, 08:15:04,VALID,919.664,VALID,0,VALID,98.708,VALID,146.12,VALID,20.0733,VALID,61,VALID,0,
2015-04-24, 08:16:04,VALID,919.663,VALID,0,VALID,98.7156,VALID,146.442,VALID,20.1123,VALID,59,VALID,0,
2015-04-24, 08:17:04,VALID,919.657,VALID,0,VALID,98.6851,VALID,145.583,VALID,20.1708,VALID,60,VALID,0,
2015-04-24, 08:18:04,VALID,919.662,VALID,0,VALID,98.647,VALID,144.938,VALID,20.2879,VALID,43,VALID,0,
2015-04-24, 08:19:04,VALID,919.694,VALID,0,VALID,98.6927,VALID,144.079,VALID,20.2489,VALID,23,VALID,0,
2015-04-24, 08:20:04,VALID,919.7,VALID,0,VALID,98.708,VALID,143.112,VALID,20.2293,VALID,19,VALID,0,
2015-04-24, 08:21:04,VALID,919.716,VALID,0,VALID,98.708,VALID,143.112,VALID,20.1708,VALID,13,VALID,0,
2015-04-24, 08:22:04,VALID,919.709,VALID,0,VALID,98.7232,VALID,143.971,VALID,20.2098,VALID,24,VALID,0,
2015-04-24, 08:23:04,VALID,919.721,VALID,0,VALID,98.7232,VALID,146.12,VALID,20.1903,VALID,25,VALID,0,
2015-04-24, 08:24:04,VALID,919.752,VALID,0,VALID,98.7004,VALID,148.054,VALID,20.2489,VALID,39,VALID,0,
2015-04-24, 08:25:04,VALID,919.751,VALID,0,VALID,98.6699,VALID,149.666,VALID,20.2879,VALID,40,VALID,0,
2015-04-24, 08:26:04,VALID,919.775,VALID,0,VALID,98.7461,VALID,152.244,VALID,20.2098,VALID,8,VALID,0,
2015-04-24, 08:27:04,VALID,919.775,VALID,0,VALID,98.7385,VALID,156.542,VALID,20.1708,VALID,12,VALID,0,
2015-04-24, 08:28:04,VALID,919.806,VALID,0,VALID,98.7766,VALID,159.335,VALID,20.1123,VALID,32,VALID,0,
2015-04-24, 08:29:04,VALID,919.81,VALID,0,VALID,98.7842,VALID,161.914,VALID,20.1108,VALID,35,VALID,0,
2015-04-24, 08:30:04,VALID,919.856,VALID,0,VALID,98.7156,VALID,167.501,VALID,20.2293,VALID,35,VALID,0,
2015-04-24, 08:31:04,VALID,919.855,VALID,0,VALID,98.6546,VALID,171.369,VALID,20.3448,VALID,7,VALID,0,
2015-04-24, 08:32:04,VALID,919.844,VALID,0,VALID,98.6927,VALID,174.914,VALID,20.3464,VALID,343,VALID,0,
2015-04-24, 08:33:04,VALID,919.869,VALID,0,VALID,98.7232,VALID,179.856,VALID,20.2278,VALID,337,VALID,0,
2015-04-24, 08:34:04,VALID,919.883,VALID,0,VALID,98.7537,VALID,184.691,VALID,20.2083,VALID,333,VALID,0,
2015-04-24, 08:35:04,VALID,919.885,VALID,0,VALID,98.7461,VALID,191.568,VALID,20.2293,VALID,5,VALID,0,
2015-04-24, 08:36:04,VALID,919.868,VALID,0,VALID,98.7309,VALID,198.981,VALID,20.2668,VALID,22,VALID,0,
2015-04-24, 08:37:04,VALID,919.896,VALID,0,VALID,98.6775,VALID,207.576,VALID,20.3643,VALID,22,VALID,0,
2015-04-24, 08:38:04,VALID,919.864,VALID,0,VALID,98.6699,VALID,217.461,VALID,20.4244,VALID,22,VALID,0,
2015-04-24, 08:39:04,VALID,919.901,VALID,0,VALID,98.6622,VALID,238.949,VALID,20.4829,VALID,21,VALID,0,
2015-04-24, 08:40:04,VALID,919.897,VALID,0,VALID,98.6394,VALID,277.198,VALID,20.5204,VALID,22,VALID,0,
2015-04-24, 08:41:04,VALID,919.9,VALID,0,VALID,98.6013,VALID,266.239,VALID,20.6764,VALID,21,VALID,0,
2015-04-24, 08:42:04,VALID,919.9,VALID,0,VALID,98.5936,VALID,288.265,VALID,20.7154,VALID,21,VALID,0,
2015-04-24, 08:43:04,VALID,919.935,VALID,0,VALID,98.6775,VALID,374.432,VALID,20.6374,VALID,29,VALID,0,
2015-04-24, 08:44:04,VALID,919.887,VALID,0,VALID,98.7385,VALID,338.44,VALID,20.6179,VALID,11,VALID,0,
2015-04-24, 08:45:04,VALID,919.948,VALID,0,VALID,98.6546,VALID,339.944,VALID,20.6959,VALID,348,VALID,0,
2015-04-24, 08:46:04,VALID,919.943,VALID,0,VALID,98.6165,VALID,347.894,VALID,20.8324,VALID,346,VALID,0,
2015-04-24, 08:47:04,VALID,919.94,VALID,0,VALID,98.6089,VALID,423.426,VALID,20.8309,VALID,1,VALID,0,
2015-04-24, 08:48:04,VALID,919.975,VALID,0,VALID,98.5555,VALID,481.444,VALID,20.891,VALID,327,VALID,0,
2015-04-24, 08:49:04,VALID,919.945,VALID,0,VALID,98.5022,VALID,481.659,VALID,20.9495,VALID,12,VALID,0,
2015-04-24, 08:50:04,VALID,919.959,VALID,0,VALID,98.3954,VALID,490.039,VALID,21.008,VALID,24,VALID,0,
2015-04-24, 08:51:04,VALID,919.972,VALID,0,VALID,98.1743,VALID,492.94,VALID,21.0649,VALID,57,VALID,1.39297,
2015-04-24, 08:52:04,VALID,919.974,VALID,0,VALID,97.7703,VALID,489.932,VALID,21.1836,VALID,60,VALID,1.29883,
2015-04-24, 08:53:04,VALID,919.974,VALID,0,VALID,96.5963,VALID,479.94,VALID,21.1234,VALID,38,VALID,1.2457,
2015-04-24, 08:54:04,VALID,919.958,VALID,0,VALID,95.1936,VALID,470.915,VALID,21.2015,VALID,20,VALID,1.49297,
2015-04-24, 08:55:04,VALID,919.944,VALID,0,VALID,94.2712,VALID,455.336,VALID,21.2795,VALID,33,VALID,0.877734,
2015-04-24, 08:56:04,VALID,919.976,VALID,0,VALID,94.7438,VALID,445.881,VALID,21.5152,VALID,6,VALID,1.03516,
2015-04-24, 08:57:04,VALID,919.961,VALID,0,VALID,90.8178,VALID,443.41,VALID,21.5737,VALID,341,VALID,0.935156,
2015-04-24, 08:58:04,VALID,919.963,VALID,0,VALID,91.5496,VALID,446.848,VALID,21.7688,VALID,5,VALID,1.02305,
2015-04-24, 08:59:04,VALID,919.957,VALID,0,VALID,87.2424,VALID,437.178,VALID,21.8274,VALID,6,VALID,0,
2015-04-24, 09:00:04,VALID,919.962,VALID,0,VALID,88.9729,VALID,440.724,VALID,21.9444,VALID,357,VALID,0,
2015-04-24, 09:01:04,VALID,919.942,VALID,0,VALID,91.5801,VALID,439.219,VALID,22.1379,VALID,58,VALID,0,
2015-04-24, 09:02:04,VALID,919.944,VALID,0,VALID,87.0365,VALID,430.732,VALID,22.255,VALID,37,VALID,0,
2015-04-24, 09:03:04,VALID,919.931,VALID,0,VALID,86.4267,VALID,420.847,VALID,22.3916,VALID,18,VALID,0,
2015-04-24, 09:04:04,VALID,919.937,VALID,0,VALID,84.963,VALID,423.103,VALID,22.5086,VALID,19,VALID,0,
2015-04-24, 09:05:04,VALID,919.926,VALID,0,VALID,84.5208,VALID,436.748,VALID,22.5867,VALID,20,VALID,0,
2015-04-24, 09:06:04,VALID,919.936,VALID,0,VALID,83.1867,VALID,437.5,VALID,22.6062,VALID,65,VALID,0,
2015-04-24, 09:07:04,VALID,919.901,VALID,0,VALID,84.2769,VALID,442.658,VALID,22.663,VALID,67,VALID,0,
2015-04-24, 09:08:04,VALID,919.902,VALID,0,VALID,84.6657,VALID,452.65,VALID,22.7996,VALID,46,VALID,0,
2015-04-24, 09:09:04,VALID,919.894,VALID,0,VALID,82.5387,VALID,464.038,VALID,22.9362,VALID,319,VALID,0,
2015-04-24, 09:10:04,VALID,919.92,VALID,0,VALID,81.8298,VALID,475.535,VALID,22.9753,VALID,243,VALID,0,
2015-04-24, 09:11:04,VALID,919.904,VALID,0,VALID,83.423,VALID,474.353,VALID,22.9965,VALID,245,VALID,0,
2015-04-24, 09:12:04,VALID,919.913,VALID,0,VALID,84.132,VALID,489.18,VALID,23.0533,VALID,258,VALID,0,
2015-04-24, 09:13:04,VALID,919.947,VALID,0,VALID,82.6302,VALID,501.643,VALID,23.1314,VALID,300,VALID,0,
2015-04-24, 09:14:04,VALID,919.936,VALID,0,VALID,80.8768,VALID,512.387,VALID,23.2307,VALID,333,VALID,0,
2015-04-24, 09:15:04,VALID,919.961,VALID,0,VALID,81.1589,VALID,507.767,VALID,23.2893,VALID,326,VALID,0,
2015-04-24, 09:16:04,VALID,919.942,VALID,0,VALID,81.2122,VALID,519.693,VALID,23.2893,VALID,326,VALID,0,
2015-04-24, 09:17:04,VALID,919.935,VALID,0,VALID,80.4804,VALID,515.18,VALID,23.3088,VALID,349,VALID,0,
2015-04-24, 09:18:04,VALID,919.885,VALID,0,VALID,80.023,VALID,505.081,VALID,23.4064,VALID,351,VALID,0,
2015-04-24, 09:19:04,VALID,919.872,VALID,0,VALID,78.5441,VALID,510.023,VALID,23.465,VALID,260,VALID,0,
2015-04-24, 09:20:04,VALID,919.862,VALID,0,VALID,78.9786,VALID,539.892,VALID,23.3674,VALID,256,VALID,0,
2015-04-24, 09:21:04,VALID,919.827,VALID,0,VALID,80.8158,VALID,497.882,VALID,23.229,VALID,265,VALID,0,
2015-04-24, 09:22:04,VALID,919.834,VALID,0,VALID,82.1957,VALID,556.545,VALID,23.2875,VALID,292,VALID,0,
2015-04-24, 09:23:04,VALID,919.831,VALID,0,VALID,80.8463,VALID,404.086,VALID,23.3674,VALID,305,VALID,0,
2015-04-24, 09:24:04,VALID,919.809,VALID,0,VALID,79.8705,VALID,576.099,VALID,23.307,VALID,325,VALID,0,
2015-04-24, 09:25:04,VALID,919.855,VALID,0,VALID,79.8705,VALID,579.323,VALID,23.3265,VALID,341,VALID,0,
2015-04-24, 09:26:04,VALID,919.818,VALID,0,VALID,79.8858,VALID,588.67,VALID,23.4046,VALID,32,VALID,0,
2015-04-24, 09:27:04,VALID,919.82,VALID,0,VALID,78.0638,VALID,593.827,VALID,23.4241,VALID,282,VALID,1.1875,
2015-04-24, 09:28:04,VALID,919.849,VALID,0,VALID,81.662,VALID,520.767,VALID,23.4614,VALID,4,VALID,1.50039,
2015-04-24, 09:29:04,VALID,919.833,VALID,0,VALID,79.8172,VALID,587.166,VALID,23.6388,VALID,24,VALID,0.934375,
2015-04-24, 09:30:04,VALID,919.833,VALID,0,VALID,78.4983,VALID,592.538,VALID,23.637,VALID,351,VALID,1.8582,
2015-04-24, 09:31:04,VALID,919.838,VALID,0,VALID,80.2974,VALID,546.123,VALID,23.7346,VALID,2,VALID,0,
2015-04-24, 09:32:04,VALID,919.876,VALID,0,VALID,80.5033,VALID,600.918,VALID,23.8127,VALID,17,VALID,0.0398437,
2015-04-24, 09:33:04,VALID,919.861,VALID,0,VALID,79.9544,VALID,596.836,VALID,23.9884,VALID,14,VALID,0,
2015-04-24, 09:34:04,VALID,919.859,VALID,0,VALID,76.4247,VALID,426.326,VALID,24.0488,VALID,243,VALID,0,
2015-04-24, 09:35:04,VALID,919.854,VALID,0,VALID,77.0499,VALID,476.609,VALID,24.2245,VALID,241,VALID,0,
2015-04-24, 09:36:04,VALID,919.866,VALID,0,VALID,77.7893,VALID,639.919,VALID,24.4374,VALID,31,VALID,0,
2015-04-24, 09:37:04,VALID,919.845,VALID,0,VALID,76.2875,VALID,419.987,VALID,24.3983,VALID,14,VALID,1.34531,
2015-04-24, 09:38:04,VALID,919.887,VALID,0,VALID,75.2126,VALID,540.859,VALID,24.3202,VALID,334,VALID,0,
2015-04-24, 09:39:04,VALID,919.843,VALID,0,VALID,74.801,VALID,627.671,VALID,24.2226,VALID,23,VALID,1.41953,
2015-04-24, 09:40:04,VALID,919.817,VALID,0,VALID,74.1149,VALID,630.142,VALID,24.1836,VALID,351,VALID,1.60312,
2015-04-24, 09:41:04,VALID,919.827,VALID,0,VALID,74.4655,VALID,638.523,VALID,24.1055,VALID,324,VALID,0,
2015-04-24, 09:42:04,VALID,919.811,VALID,0,VALID,76.6001,VALID,691.384,VALID,24.2031,VALID,43,VALID,0,
2015-04-24, 09:43:04,VALID,919.816,VALID,0,VALID,74.5799,VALID,425.145,VALID,24.4178,VALID,28,VALID,0.00429688,
2015-04-24, 09:44:04,VALID,919.822,VALID,0,VALID,76.6153,VALID,364.225,VALID,24.4959,VALID,10,VALID,0.00898437,
2015-04-24, 09:45:04,VALID,919.821,VALID,0,VALID,73.848,VALID,292.777,VALID,24.4959,VALID,9,VALID,0.00585938,
2015-04-24, 09:46:04,VALID,919.821,VALID,0,VALID,73.8861,VALID,409.243,VALID,24.4355,VALID,34,VALID,0.537891,
2015-04-24, 09:47:04,VALID,919.869,VALID,0,VALID,75.5023,VALID,352.3,VALID,24.3202,VALID,28,VALID,0.348828,
2015-04-24, 09:48:04,VALID,919.874,VALID,0,VALID,76.6382,VALID,328.662,VALID,24.2812,VALID,6,VALID,0,
2015-04-24, 09:49:04,VALID,919.872,VALID,0,VALID,75.6929,VALID,266.991,VALID,24.1836,VALID,33,VALID,0,
2015-04-24, 09:50:04,VALID,919.887,VALID,0,VALID,74.4274,VALID,267.743,VALID,24.0878,VALID,283,VALID,0,
2015-04-24, 09:51:04,VALID,919.9,VALID,0,VALID,76.3638,VALID,277.628,VALID,23.8908,VALID,39,VALID,0,
2015-04-24, 09:52:04,VALID,919.905,VALID,0,VALID,78.6432,VALID,316.199,VALID,23.9707,VALID,30,VALID,0,
2015-04-24, 09:53:04,VALID,919.928,VALID,0,VALID,78.0333,VALID,394.094,VALID,24.0683,VALID,22,VALID,0,
2015-04-24, 09:54:04,VALID,919.917,VALID,0,VALID,76.7907,VALID,354.019,VALID,24.0079,VALID,29,VALID,0.162109,
2015-04-24, 09:55:04,VALID,919.922,VALID,0,VALID,76.8212,VALID,416.012,VALID,23.9707,VALID,41,VALID,0.427734,
2015-04-24, 09:56:04,VALID,919.954,VALID,0,VALID,76.7221,VALID,439.434,VALID,24.0292,VALID,41,VALID,0,
2015-04-24, 09:57:04,VALID,919.959,VALID,0,VALID,76.6535,VALID,311.794,VALID,24.1641,VALID,1,VALID,0.0046875,
2015-04-24, 09:58:04,VALID,919.99,VALID,0,VALID,76.6153,VALID,301.372,VALID,24.3221,VALID,14,VALID,0,
2015-04-24, 09:59:04,VALID,919.982,VALID,0,VALID,73.566,VALID,304.273,VALID,24.3026,VALID,3,VALID,1.25391,
2015-04-24, 10:00:04,VALID,919.96,VALID,0,VALID,75.9292,VALID,315.125,VALID,24.0469,VALID,357,VALID,0.0402344,
2015-04-24, 10:01:04,VALID,919.921,VALID,0,VALID,75.7005,VALID,712.013,VALID,23.8926,VALID,24,VALID,0.457812,
2015-04-24, 10:02:04,VALID,919.963,VALID,0,VALID,77.0194,VALID,692.243,VALID,23.8322,VALID,28,VALID,0.995703,
2015-04-24, 10:03:04,VALID,919.937,VALID,0,VALID,77.8961,VALID,543.115,VALID,24.0683,VALID,11,VALID,0.185156,
2015-04-24, 10:04:04,VALID,919.969,VALID,0,VALID,75.8454,VALID,419.987,VALID,24.244,VALID,56,VALID,0.563281,
2015-04-24, 10:05:04,VALID,919.933,VALID,0,VALID,77.4539,VALID,393.664,VALID,24.416,VALID,32,VALID,0,
2015-04-24, 10:06:04,VALID,919.95,VALID,0,VALID,72.9485,VALID,379.59,VALID,24.455,VALID,253,VALID,0,
2015-04-24, 10:07:04,VALID,919.983,VALID,0,VALID,73.8175,VALID,393.772,VALID,24.3574,VALID,37,VALID,0,
2015-04-24, 10:08:04,VALID,919.979,VALID,0,VALID,73.7718,VALID,339.407,VALID,24.3184,VALID,21,VALID,0,
2015-04-24, 10:09:04,VALID,919.979,VALID,0,VALID,73.2991,VALID,343.06,VALID,24.1622,VALID,307,VALID,0,
2015-04-24, 10:10:04,VALID,919.988,VALID,0,VALID,75.9368,VALID,321.142,VALID,23.9866,VALID,302,VALID,0,
2015-04-24, 10:11:04,VALID,919.97,VALID,0,VALID,76.9889,VALID,327.373,VALID,23.928,VALID,305,VALID,0,
2015-04-24, 10:12:04,VALID,919.932,VALID,0,VALID,77.8808,VALID,356.919,VALID,24.0842,VALID,339,VALID,0.0222656,
2015-04-24, 10:13:04,VALID,919.949,VALID,0,VALID,78.0333,VALID,390.119,VALID,24.1817,VALID,6,VALID,0,
2015-04-24, 10:14:04,VALID,919.943,VALID,0,VALID,77.6826,VALID,758.642,VALID,24.3965,VALID,19,VALID,0,
2015-04-24, 10:15:04,VALID,919.878,VALID,0,VALID,73.6803,VALID,398.607,VALID,24.5526,VALID,338,VALID,0,
2015-04-24, 10:16:04,VALID,919.896,VALID,0,VALID,74.9382,VALID,370.994,VALID,24.5917,VALID,308,VALID,0,
2015-04-24, 10:17:04,VALID,919.863,VALID,0,VALID,74.496,VALID,379.697,VALID,24.5526,VALID,248,VALID,0,
2015-04-24, 10:18:04,VALID,919.868,VALID,0,VALID,74.6942,VALID,381.953,VALID,24.5722,VALID,330,VALID,0,
2015-04-24, 10:19:04,VALID,919.888,VALID,0,VALID,76.2037,VALID,387.433,VALID,24.5508,VALID,6,VALID,0,
2015-04-24, 10:20:04,VALID,919.855,VALID,0,VALID,75.5252,VALID,500.676,VALID,24.6326,VALID,6,VALID,0,
2015-04-24, 10:21:04,VALID,919.86,VALID,0,VALID,75.792,VALID,375.077,VALID,24.6912,VALID,40,VALID,0.535156,
2015-04-24, 10:22:04,VALID,919.817,VALID,0,VALID,75.9978,VALID,388.937,VALID,24.7302,VALID,11,VALID,0.709375,
2015-04-24, 10:23:04,VALID,919.842,VALID,0,VALID,75.0678,VALID,411.177,VALID,24.6912,VALID,34,VALID,0,
2015-04-24, 10:24:04,VALID,919.82,VALID,0,VALID,75.0373,VALID,489.502,VALID,24.6716,VALID,280,VALID,0,
2015-04-24, 10:25:04,VALID,919.789,VALID,0,VALID,73.1924,VALID,327.266,VALID,24.6326,VALID,336,VALID,0,
2015-04-24, 10:26:04,VALID,919.751,VALID,0,VALID,74.7552,VALID,329.522,VALID,24.6716,VALID,324,VALID,0,
2015-04-24, 10:27:04,VALID,919.714,VALID,0,VALID,74.9229,VALID,375.399,VALID,24.6326,VALID,11,VALID,0,
2015-04-24, 10:28:04,VALID,919.714,VALID,0,VALID,76.0055,VALID,803.767,VALID,24.5155,VALID,14,VALID,1.94141,
2015-04-24, 10:29:04,VALID,919.676,VALID,0,VALID,77.3853,VALID,772.932,VALID,24.3788,VALID,16,VALID,0,
2015-04-24, 10:30:04,VALID,919.678,VALID,0,VALID,77.6674,VALID,447.492,VALID,24.4178,VALID,24,VALID,0.00195313,
2015-04-24, 10:31:04,VALID,919.684,VALID,0,VALID,77.9418,VALID,359.068,VALID,24.6131,VALID,22,VALID,0.570703,
2015-04-24, 10:32:04,VALID,919.654,VALID,0,VALID,75.0068,VALID,372.713,VALID,24.8278,VALID,20,VALID,0.495313,
2015-04-24, 10:33:04,VALID,919.653,VALID,0,VALID,75.0983,VALID,540.751,VALID,25.0231,VALID,37,VALID,0.947656,
2015-04-24, 10:34:04,VALID,919.663,VALID,0,VALID,73.6651,VALID,866.835,VALID,25.1402,VALID,8,VALID,0.660547,
2015-04-24, 10:35:04,VALID,919.66,VALID,0,VALID,75.3956,VALID,412.789,VALID,25.2965,VALID,15,VALID,1.70742,
2015-04-24, 10:36:04,VALID,919.737,VALID,0,VALID,73.4516,VALID,838.363,VALID,25.2379,VALID,20,VALID,1.11172,
2015-04-24, 10:37:04,VALID,919.7,VALID,0,VALID,73.6574,VALID,371.531,VALID,25.2398,VALID,10,VALID,0.0507813,
2015-04-24, 10:38:04,VALID,919.758,VALID,0,VALID,76.2723,VALID,454.369,VALID,25.1774,VALID,5,VALID,0.572656,
2015-04-24, 10:39:04,VALID,919.741,VALID,0,VALID,73.0476,VALID,426.864,VALID,25.0817,VALID,7,VALID,1.80313,
2015-04-24, 10:40:04,VALID,919.792,VALID,0,VALID,74.0157,VALID,728.129,VALID,24.984,VALID,329,VALID,0.00429688,
2015-04-24, 10:42:04,VALID,919.786,VALID,0,VALID,73.505,VALID,334.464,VALID,25.0212,VALID,321,VALID,0,
2015-04-24, 10:43:04,VALID,919.816,VALID,0,VALID,74.6256,VALID,355.63,VALID,24.9645,VALID,3,VALID,0,
2015-04-24, 10:44:04,VALID,919.785,VALID,0,VALID,74.8848,VALID,424.715,VALID,24.904,VALID,10,VALID,0.504297,
2015-04-24, 10:45:04,VALID,919.759,VALID,0,VALID,73.8023,VALID,431.054,VALID,24.9645,VALID,305,VALID,0.0242187,
2015-04-24, 10:46:04,VALID,919.745,VALID,0,VALID,73.9395,VALID,409.243,VALID,24.7479,VALID,263,VALID,0,
2015-04-24, 10:47:04,VALID,919.7,VALID,0,VALID,74.6637,VALID,584.802,VALID,24.6893,VALID,40,VALID,0,
2015-04-24, 10:48:04,VALID,919.685,VALID,0,VALID,76.1503,VALID,391.945,VALID,24.7283,VALID,355,VALID,0.00429688,
2015-04-24, 10:49:04,VALID,919.689,VALID,0,VALID,76.1351,VALID,874.678,VALID,24.8474,VALID,214,VALID,0,
2015-04-24, 10:50:04,VALID,919.683,VALID,0,VALID,77.2328,VALID,895.522,VALID,25.0407,VALID,30,VALID,0.0289063,
2015-04-24, 10:51:04,VALID,919.648,VALID,0,VALID,75.0144,VALID,560.091,VALID,25.275,VALID,52,VALID,0,
2015-04-24, 10:52:04,VALID,919.63,VALID,0,VALID,73.4516,VALID,338.869,VALID,25.4898,VALID,357,VALID,0,
2015-04-24, 10:53:04,VALID,919.641,VALID,0,VALID,70.7605,VALID,314.695,VALID,25.4703,VALID,339,VALID,0,
2015-04-24, 10:54:04,VALID,919.612,VALID,0,VALID,73.3906,VALID,351.333,VALID,25.5289,VALID,5,VALID,0,
2015-04-24, 10:55:04,VALID,919.644,VALID,0,VALID,74.3054,VALID,519.156,VALID,25.5484,VALID,5,VALID,0,
2015-04-24, 10:56:04,VALID,919.624,VALID,0,VALID,74.7019,VALID,421.707,VALID,25.4722,VALID,70,VALID,0.0707031,
2015-04-24, 10:57:04,VALID,919.596,VALID,0,VALID,75.7615,VALID,560.95,VALID,25.3922,VALID,37,VALID,0.689844,
2015-04-24, 10:58:04,VALID,919.536,VALID,0,VALID,72.6283,VALID,464.361,VALID,25.355,VALID,23,VALID,0.612109,
2015-04-24, 10:59:04,VALID,919.544,VALID,0,VALID,74.435,VALID,336.935,VALID,25.0817,VALID,1,VALID,0.492969,
2015-04-24, 11:00:04,VALID,919.522,VALID,0,VALID,73.3373,VALID,307.067,VALID,24.8474,VALID,23,VALID,0.683984,
